Tracking 18945 objects as of 19-Jan-2018
HD Live streaming from Space Station
objects crossing your sky now

FENGYUN 1C DEB

Track FENGYUN 1C DEB now!
10-day predictions


NORAD ID: 30666
Int'l Code: 1999-025APY
Perigee: 858.8 km
Apogee: 941.2 km
Inclination: 99.0 °
Period: 102.8 minutes
Semi major axis: 7270 km
RCS: 0.0336 m2 (small)
Launch date: May 10, 1999
Source: People's Republic of China (PRC)
Launch site: Taiyaun Space Center, China (TSC)

Note: This is SATELLITE DEBRIS
aabbcc
Your satellite tracking list
Your tracking list is empty




NASA's NSSDC Master Catalog

Two Line Element Set (TLE):
1 30666U 99025APY 18018.59955578 -.00000180 +00000-0 -90860-4 0  9995
2 30666 098.9573 059.3065 0056619 248.5971 265.5723 14.00273003557147
Source of the keplerian elements: AFSPC